Weather History for KACT - June, 2013

Change the Weather History Date:

Saturday, June 22, 2013

  Actual Average Record
Temperature  
Mean Temperature 87 °F 82 °F  
Max Temperature 98 °F 93 °F 103 °F (1906)
Min Temperature 75 °F 72 °F 61 °F (1961)
Degree Days  
Heating Degree Days 0 0  
Month to date heating degree days 0 0  
Since 1 June heating degree days 0 0  
Since 1 July heating degree days 2023 2142  
Cooling Degree Days 22 17  
Month to date cooling degree days 371 342  
Year to date cooling degree days 788 794  
Since 1 June cooling degree days 371 342  
Growing Degree Days 36 (Base 50)    
Moisture  
Dew Point 68 °F    
Average Humidity 60    
Maximum Humidity 87    
Minimum Humidity 33    
Precipitation  
Precipitation 0.00 in 0.10 in 4.28 in (2014)
Month to date precipitation 1.62 2.78  
Year to date precipitation 15.71 17.67  
Sea Level Pressure  
Sea Level Pressure 29.97 in    
Wind  
Wind Speed 15 mph (South)    
Max Wind Speed 21 mph    
Max Gust Speed 25 mph    
Visibility 10 miles    
Events      
T = Trace of Precipitation, MM = Missing Value Source: NWS Daily Summary

Daily Weather History Graph

Daily Weather History Graph

Search for Another Location

Airport or City:

Trip Planner

Search our weather history database for the weather conditions in past years. The results will help you decide how hot, cold, wet, or windy it might be!

Date:

Astronomy

Jun. 22, 2013 Rise Set
Actual Time 6:24 AM CDT 8:37 PM CDT
Civil Twilight 5:56 AM CDT 9:05 PM CDT
Nautical Twilight 5:22 AM CDT 9:39 PM CDT
Astronomical Twilight 4:45 AM CDT 10:16 PM CDT
Moon 7:57 PM CDT (6/22) 5:34 AM CDT (6/22)
Length of Visible Light 15h 09m
Length of Day
14h 12m
Waxing Gibbous, 99% of the Moon is Illuminated
Jun 22
Waxing Gibbous
Jun 23
Full
Jun 29
Last Quarter
Jul 8
New
Jul 15
First Quarter

Hourly Weather History & Observations

Time (CDT) Temp. Heat Index Dew Point Humidity Pressure Visibility Wind Dir Wind Speed Gust Speed Precip Events Conditions
12:51 AM 82.0 °F 83.8 °F 64.9 °F 56% 29.97 in 10.0 mi South 12.7 mph - N/A   Clear
1:51 AM 81.0 °F 83.0 °F 66.0 °F 60% 29.97 in 10.0 mi South 13.8 mph - N/A   Clear
2:51 AM 79.0 °F - 66.9 °F 66% 29.96 in 10.0 mi South 18.4 mph 23.0 mph N/A   Clear
3:51 AM 77.0 °F - 69.1 °F 76% 29.96 in 10.0 mi South 11.5 mph - N/A   Clear
4:51 AM 75.9 °F - 69.1 °F 79% 29.97 in 10.0 mi South 12.7 mph - N/A   Clear
5:40 AM 75.2 °F - 71.6 °F 89% 30.00 in 10.0 mi South 15.0 mph - N/A   Mostly Cloudy
5:51 AM 75.9 °F - 71.1 °F 85% 29.98 in 10.0 mi South 11.5 mph - N/A   Mostly Cloudy
6:51 AM 75.0 °F - 72.0 °F 90% 29.99 in 10.0 mi South 11.5 mph - N/A   Scattered Clouds
7:51 AM 77.0 °F - 72.0 °F 84% 30.01 in 10.0 mi South 12.7 mph - N/A   Partly Cloudy
8:51 AM 82.0 °F 87.4 °F 73.0 °F 74% 30.03 in 10.0 mi South 12.7 mph - N/A   Scattered Clouds
9:00 AM 80.6 °F 84.6 °F 71.6 °F 74% 30.06 in 10.0 mi South 12.7 mph - N/A   Mostly Cloudy
9:02 AM 80.6 °F 84.6 °F 71.6 °F 74% 30.05 in 10.0 mi South 13.8 mph 20.7 mph N/A   Mostly Cloudy
9:47 AM 84.2 °F 89.6 °F 71.6 °F 66% 30.06 in 10.0 mi South 16.1 mph 24.2 mph N/A   Scattered Clouds
9:51 AM 84.9 °F 90.1 °F 71.1 °F 63% 30.03 in 10.0 mi South 17.3 mph 21.9 mph N/A   Scattered Clouds
10:51 AM 88.0 °F 92.9 °F 70.0 °F 55% 30.02 in 10.0 mi South 16.1 mph - N/A   Partly Cloudy
11:51 AM 91.0 °F 95.6 °F 69.1 °F 48% 30.02 in 10.0 mi South 16.1 mph 23.0 mph N/A   Clear
12:51 PM 93.0 °F 97.4 °F 68.0 °F 44% 30.01 in 10.0 mi South 18.4 mph 25.3 mph N/A   Partly Cloudy
1:51 PM 95.0 °F 99.0 °F 66.9 °F 40% 29.99 in 10.0 mi South 17.3 mph 21.9 mph N/A   Clear
2:51 PM 97.0 °F 101.0 °F 66.9 °F 37% 29.96 in 10.0 mi South 17.3 mph 24.2 mph N/A   Clear
3:51 PM 97.0 °F 101.0 °F 66.9 °F 37% 29.93 in 10.0 mi South 12.7 mph - N/A   Clear
4:51 PM 98.1 °F 100.7 °F 64.0 °F 33% 29.91 in 10.0 mi South 17.3 mph 21.9 mph N/A   Clear
5:51 PM 97.0 °F 99.9 °F 64.9 °F 35% 29.88 in 10.0 mi South 13.8 mph 25.3 mph N/A   Clear
6:51 PM 95.0 °F 97.0 °F 64.0 °F 36% 29.87 in 10.0 mi South 15.0 mph 21.9 mph N/A   Clear
7:51 PM 93.0 °F 95.0 °F 64.9 °F 39% 29.86 in 10.0 mi SE 18.4 mph 25.3 mph N/A   Partly Cloudy
8:51 PM 91.0 °F 93.0 °F 64.9 °F 42% 29.87 in 10.0 mi SSE 13.8 mph 23.0 mph N/A   Clear
9:51 PM 89.1 °F 91.3 °F 66.0 °F 46% 29.89 in 10.0 mi SE 13.8 mph 23.0 mph N/A   Clear
10:51 PM 87.1 °F 89.2 °F 66.0 °F 49% 29.91 in 10.0 mi SSE 16.1 mph - N/A   Partly Cloudy
11:51 PM 84.9 °F 88.2 °F 68.0 °F 57% 29.93 in 10.0 mi SSE 17.3 mph 23.0 mph N/A   Clear